Temp
-6 -6 -6 -7 -7 -7 -7 -6 -6 -6 -6 -6 -6 -6 -6 -6 -6 -6 -7 -7 -7 -7 -7 -7 -8 -8 -8 -8 -8 -8 -8 -8 -8 -9 -9 -9 -9 -9 -9 -9 -9 -9 -9 -9 -9 -9 -9 -9 -9 -9 -9 -9 -9 -9 -9 -9 -8 -8 -8 -8 -8 -8 -8 -8 -8 -8 -8 -8 -8 -8 -7 -7 -7 -7
-6 -6 -6 -7 -7 -7 -7 -6 -6 -6 -6 -6 -6 -6 -6 -6 -6 -6 -7 -7 -7 -7 -7 -7 -8 -8 -8 -8 -8 -8 -8 -8 -9 -9 -9 -9 -9 -9 -9 -9 -9 -9 -8 -9 -9 -9 -9 -9 -9 -9 -9 -9 -9 -9 -9 -9 -8 -8 -8 -8 -8 -8 -8 -8 -8 -8 -8 -8 -8 -8 -8 -7 -7 -7
-6 -6 -6 -6 -7 -7 -7 -6 -6 -6 -6 -6 -6 -6 -6 -6 -6 -6 -7 -7 -7 -7 -7 -7 -7 -7 -7 -7 -8 -8 -8 -9 -9 -9 -9 -9 -9 -9 -9 -9 -8 -8 -8 -8 -8 -8 -8 -8 -8 -8 -8 -8 -8 -8 -8 -8 -8 -8 -8 -8 -8 -8 -7 -7 -7 -7 -7 -7 -7 -7 -8 -8 -8 -8
-6 -6 -6 -6 -6 -6 -6 -6 -6 -6 -6 -6 -6 -6 -6 -6 -6 -6 -7 -7 -7 -7 -7 -7 -7 -7 -7 -8 -8 -8 -9 -9 -9 -9 -9 -9 -9 -8 -8 -8 -8 -8 -8 -8 -8 -8 -8 -8 -8 -8 -8 -8 -8 -8 -8 -8 -8 -8 -8 -8 -8 -7 -7 -7 -7 -7 -7 -7 -7 -7 -7 -7 -8 -8
-5 -6 -6 -6 -6 -6 -6 -6 -6 -6 -6 -6 -6 -6 -6 -6 -6 -6 -7 -7 -7 -7 -7 -7 -7 -7 -7 -8 -8 -8 -9 -9 -9 -9 -9 -8 -8 -8 -8 -8 -8 -8 -8 -8 -8 -8 -8 -8 -8 -8 -8 -8 -8 -8 -8 -8 -8 -8 -7 -7 -7 -7 -7 -7 -7 -7 -7 -7 -6 -6 -7 -7 -7 -7
-6 -6 -6 -6 -6 -6 -6 -6 -6 -6 -6 -5 -5 -6 -6 -6 -6 -6 -6 -7 -7 -7 -7 -7 -7 -7 -7 -7 -8 -8 -9 -9 -8 -8 -8 -8 -8 -8 -8 -8 -8 -8 -8 -8 -8 -8 -8 -8 -8 -8 -8 -8 -8 -8 -7 -7 -7 -7 -7 -7 -7 -7 -6 -6 -6 -6 -6 -6 -6 -6 -6 -6 -7 -7
-6 -6 -6 -6 -6 -6 -6 -6 -6 -6 -6 -5 -5 -5 -6 -6 -6 -6 -6 -7 -7 -7 -7 -7 -7 -7 -7 -7 -8 -8 -8 -8 -8 -8 -8 -8 -8 -8 -8 -8 -8 -8 -8 -8 -8 -8 -8 -8 -8 -8 -8 -7 -7 -7 -7 -7 -7 -6 -6 -6 -6 -6 -6 -6 -6 -6 -6 -6 -6 -6 -6 -6 -6 -6
-6 -6 -6 -6 -6 -6 -6 -6 -6 -6 -6 -5 -5 -5 -5 -6 -6 -6 -6 -6 -7 -7 -7 -7 -7 -7 -7 -7 -8 -8 -8 -8 -8 -8 -8 -8 -8 -8 -8 -8 -8 -8 -8 -8 -8 -8 -8 -8 -8 -8 -7 -7 -7 -7 -7 -7 -6 -6 -6 -6 -6 -6 -6 -6 -6 -6 -6 -6 -5 -5 -6 -6 -6 -6
-6 -6 -6 -6 -6 -6 -6 -6 -6 -6 -5 -5 -5 -5 -5 -5 -6 -6 -6 -6 -7 -7 -7 -6 -7 -7 -7 -7 -8 -8 -8 -8 -8 -7 -8 -8 -8 -8 -8 -8 -8 -8 -8 -8 -8 -8 -8 -8 -8 -8 -7 -7 -7 -7 -7 -7 -6 -6 -6 -6 -6 -6 -6 -6 -5 -5 -5 -5 -5 -5 -5 -5 -6 -6
-6 -6 -6 -6 -6 -6 -6 -6 -6 -5 -5 -5 -5 -5 -5 -5 -6 -6 -6 -6 -7 -7 -7 -6 -7 -7 -7 -7 -7 -8 -8 -8 -7 -7 -8 -8 -8 -8 -8 -8 -8 -9 -9 -9 -9 -9 -8 -8 -8 -8 -8 -7 -7 -7 -7 -7 -6 -6 -6 -6 -6 -6 -6 -6 -5 -5 -5 -5 -5 -5 -5 -5 -5 -5
-6 -6 -6 -6 -6 -6 -6 -6 -6 -5 -5 -5 -5 -5 -5 -5 -6 -6 -6 -6 -7 -7 -7 -7 -7 -7 -7 -7 -7 -7 -7 -7 -8 -8 -8 -8 -8 -8 -9 -9 -8 -9 -9 -9 -8 -8 -8 -8 -8 -8 -8 -7 -7 -7 -7 -7 -6 -6 -6 -6 -6 -6 -6 -6 -5 -5 -5 -5 -5 -5 -5 -5 -5 -5
-6 -6 -6 -6 -6 -6 -6 -6 -6 -6 -5 -5 -5 -5 -5 -5 -6 -6 -6 -6 -6 -7 -7 -7 -7 -7 -7 -7 -7 -7 -7 -7 -8 -8 -8 -8 -8 -8 -9 -9 -8 -8 -8 -8 -8 -8 -8 -8 -8 -8 -8 -8 -7 -7 -7 -7 -7 -7 -7 -7 -6 -6 -6 -6 -6 -5 -5 -5 -5 -5 -5 -5 -5 -5
-6 -6 -6 -6 -6 -6 -5 -5 -5 -5 -5 -5 -5 -5 -5 -5 -5 -6 -6 -6 -6 -7 -7 -7 -7 -7 -7 -7 -7 -7 -7 -7 -7 -8 -8 -8 -8 -8 -8 -8 -8 -8 -8 -8 -8 -8 -8 -8 -8 -8 -8 -8 -7 -7 -7 -7 -7 -7 -7 -7 -6 -6 -6 -6 -6 -5 -5 -5 -5 -5 -5 -5 -5 -5
-6 -6 -6 -6 -6 -6 -5 -5 -5 -5 -5 -5 -5 -5 -5 -5 -5 -6 -6 -6 -6 -6 -7 -7 -7 -7 -7 -7 -7 -7 -7 -7 -7 -7 -8 -8 -8 -8 -8 -8 -8 -8 -8 -8 -8 -8 -8 -8 -8 -8 -8 -7 -7 -7 -7 -7 -7 -7 -7 -7 -6 -6 -6 -6 -6 -5 -5 -5 -5 -5 -5 -5 -5 -5
-6 -6 -6 -6 -6 -6 -5 -5 -5 -5 -5 -5 -5 -5 -5 -5 -5 -6 -6 -6 -6 -6 -7 -7 -7 -7 -7 -7 -7 -7 -7 -7 -7 -7 -8 -8 -8 -8 -8 -8 -8 -8 -8 -8 -8 -8 -8 -8 -8 -8 -7 -7 -7 -7 -7 -7 -7 -7 -7 -6 -6 -6 -6 -6 -5 -5 -5 -5 -5 -5 -5 -5 -5 -5
-6 -6 -6 -5 -5 -5 -5 -5 -5 -5 -5 -5 -5 -5 -5 -5 -5 -6 -6 -6 -6 -7 -7 -7 -7 -7 -7 -7 -7 -7 -7 -7 -7 -7 -7 -7 -8 -8 -8 -8 -8 -8 -8 -8 -8 -7 -7 -7 -8 -7 -7 -7 -7 -7 -7 -7 -7 -7 -6 -6 -6 -6 -6 -5 -5 -5 -5 -5 -5 -5 -5 -5 -5 -4
-6 -6 -6 -5 -5 -5 -5 -5 -5 -5 -5 -5 -5 -5 -5 -5 -5 -6 -6 -6 -6 -7 -7 -7 -7 -7 -7 -7 -7 -7 -8 -7 -7 -8 -8 -7 -7 -7 -8 -8 -8 -8 -8 -8 -8 -7 -7 -7 -7 -7 -7 -7 -7 -7 -7 -7 -6 -6 -6 -6 -6 -6 -6 -5 -5 -5 -5 -5 -5 -5 -5 -5 -5 -4
-5 -6 -5 -5 -5 -5 -5 -5 -5 -5 -5 -5 -5 -5 -5 -5 -5 -5 -6 -6 -6 -7 -7 -7 -7 -7 -8 -8 -8 -8 -8 -8 -8 -8 -8 -8 -8 -8 -8 -8 -7 -7 -7 -7 -8 -8 -7 -7 -7 -7 -7 -7 -7 -6 -6 -6 -6 -6 -6 -6 -6 -6 -6 -6 -5 -5 -5 -5 -5 -5 -5 -5 -4 -4
-5 -5 -5 -5 -5 -5 -5 -5 -5 -5 -5 -5 -5 -5 -5 -5 -5 -6 -6 -6 -6 -7 -7 -7 -7 -7 -8 -8 -8 -8 -8 -8 -8 -8 -8 -8 -8 -8 -8 -8 -8 -7 -7 -7 -7 -7 -7 -7 -7 -7 -7 -7 -6 -6 -6 -6 -6 -6 -6 -6 -6 -6 -6 -6 -6 -5 -5 -5 -5 -5 -5 -4 -4 -4
-5 -5 -5 -5 -5 -5 -5 -5 -5 -5 -5 -5 -5 -5 -5 -5 -6 -6 -6 -6 -6 -7 -7 -7 -8 -8 -8 -8 -8 -8 -8 -8 -8 -8 -8 -8 -8 -8 -8 -8 -8 -7 -7 -7 -7 -7 -7 -7 -7 -7 -7 -7 -6 -6 -6 -6 -6 -6 -6 -6 -6 -6 -6 -6 -6 -5 -5 -5 -5 -5 -5 -4 -4 -4
-5 -5 -5 -5 -5 -5 -5 -5 -5 -5 -5 -5 -5 -5 -5 -5 -6 -6 -6 -6 -6 -7 -7 -7 -8 -8 -8 -8 -8 -8 -8 -8 -8 -9 -9 -8 -8 -8 -8 -8 -7 -7 -7 -7 -7 -7 -7 -7 -6 -6 -6 -6 -6 -6 -6 -6 -6 -6 -6 -6 -6 -6 -6 -6 -6 -5 -5 -5 -5 -5 -5 -4 -4 -4
-5 -5 -5 -5 -5 -5 -5 -5 -5 -5 -5 -5 -5 -5 -5 -5 -6 -6 -6 -6 -6 -7 -7 -7 -8 -8 -8 -8 -8 -8 -8 -8 -9 -9 -8 -8 -9 -8 -8 -7 -8 -8 -7 -7 -7 -7 -7 -7 -6 -6 -6 -6 -6 -6 -6 -6 -6 -6 -6 -6 -6 -6 -6 -6 -6 -6 -5 -5 -5 -5 -5 -5 -5 -4
-5 -5 -5 -5 -5 -5 -5 -5 -5 -5 -5 -5 -5 -5 -5 -6 -6 -6 -6 -6 -6 -7 -7 -8 -8 -8 -8 -8 -8 -8 -8 -8 -8 -8 -8 -9 -9 -9 -8 -8 -8 -8 -7 -7 -7 -7 -7 -7 -6 -6 -7 -7 -6 -6 -6 -6 -6 -6 -6 -6 -6 -6 -6 -6 -6 -6 -5 -5 -5 -5 -5 -5 -5 -4
-5 -5 -5 -5 -5 -5 -5 -5 -6 -6 -6 -6 -6 -6 -6 -6 -6 -6 -6 -6 -7 -7 -7 -8 -8 -8 -8 -8 -8 -8 -8 -8 -8 -8 -8 -9 -9 -9 -8 -8 -8 -8 -7 -7 -7 -7 -7 -7 -6 -6 -6 -6 -6 -6 -6 -6 -6 -6 -6 -6 -6 -6 -6 -6 -6 -6 -5 -5 -5 -5 -5 -5 -4 -4
-5 -5 -5 -5 -5 -5 -5 -6 -6 -6 -6 -6 -6 -6 -6 -6 -6 -6 -6 -7 -7 -7 -7 -8 -8 -8 -8 -8 -8 -8 -8 -8 -8 -8 -8 -8 -8 -8 -8 -8 -8 -8 -7 -7 -7 -7 -7 -7 -6 -6 -6 -6 -6 -6 -6 -6 -6 -6 -6 -6 -6 -6 -6 -6 -6 -6 -5 -5 -5 -5 -5 -4 -4 -4
-6 -5 -5 -5 -5 -5 -6 -6 -6 -6 -6 -6 -6 -6 -6 -6 -6 -6 -7 -7 -7 -7 -7 -8 -8 -8 -8 -8 -8 -8 -8 -8 -8 -8 -8 -8 -8 -8 -8 -8 -8 -8 -7 -7 -7 -7 -7 -7 -6 -6 -6 -6 -6 -6 -6 -6 -6 -6 -6 -6 -6 -6 -6 -6 -6 -5 -5 -5 -5 -5 -5 -4 -4 -4
-6 -6 -6 -6 -5 -6 -6 -6 -6 -6 -6 -6 -6 -6 -6 -6 -6 -7 -7 -7 -7 -7 -7 -8 -8 -8 -8 -8 -8 -8 -8 -8 -8 -8 -8 -8 -8 -8 -8 -8 -8 -7 -7 -7 -7 -7 -7 -6 -6 -6 -6 -6 -6 -6 -6 -6 -6 -6 -6 -6 -6 -6 -6 -6 -5 -5 -5 -5 -5 -5 -5 -5 -4 -4
-6 -6 -6 -6 -6 -6 -6 -6 -6 -6 -6 -6 -6 -6 -6 -6 -7 -7 -7 -7 -7 -7 -7 -8 -8 -8 -8 -8 -8 -8 -8 -8 -8 -8 -8 -8 -8 -8 -8 -8 -7 -7 -7 -7 -7 -7 -6 -6 -6 -6 -6 -6 -6 -6 -6 -6 -6 -6 -6 -6 -6 -5 -5 -5 -5 -5 -5 -5 -5 -5 -5 -5 -5 -5
-6 -6 -6 -6 -6 -6 -7 -6 -6 -6 -6 -6 -6 -6 -6 -7 -7 -7 -7 -7 -7 -7 -7 -8 -8 -8 -8 -8 -8 -8 -8 -8 -8 -8 -8 -8 -8 -8 -8 -7 -7 -7 -7 -7 -6 -6 -6 -6 -6 -6 -6 -6 -6 -6 -6 -6 -6 -6 -6 -6 -6 -5 -5 -5 -5 -5 -5 -5 -5 -5 -5 -5 -5 -5
-6 -6 -6 -7 -7 -7 -7 -7 -6 -6 -6 -6 -6 -6 -7 -7 -7 -8 -8 -8 -8 -8 -8 -8 -8 -8 -8 -8 -8 -8 -8 -8 -8 -8 -8 -8 -8 -8 -8 -7 -7 -7 -7 -6 -6 -6 -6 -6 -6 -6 -6 -6 -6 -6 -6 -6 -6 -6 -6 -5 -5 -5 -5 -5 -5 -5 -5 -5 -5 -5 -5 -5 -5 -5
-6 -6 -6 -7 -7 -7 -7 -7 -6 -6 -6 -6 -7 -7 -7 -7 -7 -8 -8 -8 -8 -8 -8 -8 -8 -8 -8 -9 -8 -8 -8 -8 -8 -8 -8 -8 -8 -8 -7 -7 -7 -7 -6 -6 -6 -6 -6 -6 -6 -6 -6 -6 -6 -6 -5 -5 -6 -6 -5 -5 -5 -5 -5 -5 -5 -5 -5 -5 -5 -5 -5 -5 -5 -5
-6 -6 -6 -7 -7 -7 -7 -7 -7 -7 -7 -7 -7 -7 -7 -7 -8 -8 -8 -8 -8 -8 -8 -8 -8 -8 -8 -8 -8 -8 -8 -8 -8 -8 -8 -8 -8 -7 -7 -7 -7 -7 -7 -7 -7 -6 -6 -6 -6 -6 -6 -6 -6 -6 -6 -6 -6 -6 -5 -5 -5 -5 -5 -5 -5 -5 -5 -5 -5 -5 -5 -5 -5 -5
-6 -6 -6 -7 -7 -7 -7 -7 -7 -7 -7 -8 -8 -8 -8 -8 -8 -8 -8 -8 -8 -8 -8 -8 -8 -8 -8 -8 -8 -8 -8 -8 -8 -8 -8 -8 -8 -7 -7 -7 -7 -7 -7 -7 -7 -7 -7 -7 -6 -6 -6 -6 -6 -6 -6 -6 -6 -6 -5 -5 -5 -5 -5 -5 -5 -5 -5 -5 -5 -5 -5 -5 -5 -5
-6 -6 -7 -7 -7 -7 -7 -7 -7 -7 -8 -8 -8 -8 -8 -8 -8 -8 -8 -8 -8 -8 -8 -8 -8 -8 -8 -8 -8 -8 -8 -8 -8 -8 -8 -8 -8 -7 -7 -7 -7 -7 -7 -7 -7 -7 -7 -7 -7 -7 -6 -6 -6 -6 -6 -6 -6 -6 -5 -5 -5 -5 -5 -5 -5 -5 -5 -5 -5 -5 -5 -5 -5 -5
-6 -6 -7 -7 -7 -7 -7 -7 -7 -8 -8 -8 -8 -8 -8 -8 -8 -8 -8 -8 -8 -8 -8 -8 -8 -8 -8 -8 -8 -8 -8 -8 -8 -8 -8 -7 -7 -7 -7 -7 -7 -7 -7 -6 -7 -7 -7 -7 -7 -7 -6 -6 -6 -6 -6 -6 -6 -5 -6 -6 -5 -5 -5 -5 -5 -5 -5 -5 -5 -5 -5 -5 -5 -5
-6 -7 -7 -7 -7 -7 -7 -8 -8 -8 -8 -8 -8 -8 -8 -8 -8 -8 -8 -8 -8 -8 -8 -8 -8 -8 -8 -8 -8 -8 -8 -8 -8 -8 -8 -7 -7 -7 -7 -7 -7 -6 -6 -6 -6 -7 -7 -7 -7 -7 -7 -7 -6 -6 -6 -6 -6 -6 -6 -6 -6 -6 -6 -6 -6 -5 -5 -5 -5 -5 -5 -5 -5 -5
-7 -7 -7 -7 -7 -8 -8 -8 -8 -8 -8 -8 -8 -8 -8 -8 -8 -8 -8 -8 -8 -8 -8 -8 -8 -8 -8 -8 -8 -8 -8 -7 -7 -7 -7 -8 -8 -8 -7 -7 -7 -6 -6 -6 -6 -7 -7 -7 -7 -7 -7 -7 -7 -6 -6 -6 -6 -6 -6 -6 -6 -6 -6 -6 -6 -6 -6 -6 -6 -6 -6 -6 -6 -6
-7 -7 -7 -7 -8 -8 -8 -8 -8 -8 -8 -8 -8 -8 -8 -8 -8 -8 -8 -8 -8 -8 -8 -8 -8 -8 -8 -8 -8 -7 -7 -7 -7 -7 -7 -7 -8 -8 -7 -7 -7 -7 -6 -6 -7 -7 -7 -7 -7 -7 -7 -7 -6 -6 -6 -6 -6 -6 -6 -6 -6 -6 -6 -6 -6 -6 -6 -6 -6 -6 -6 -6 -6 -6
-7 -7 -7 -8 -8 -8 -8 -8 -8 -8 -8 -8 -8 -8 -8 -8 -8 -8 -8 -8 -8 -8 -8 -8 -8 -8 -8 -8 -7 -7 -7 -7 -7 -7 -7 -7 -7 -7 -7 -7 -7 -7 -7 -7 -7 -7 -7 -7 -7 -7 -7 -6 -6 -6 -6 -6 -6 -6 -6 -6 -6 -7 -7 -7 -7 -7 -7 -7 -6 -6 -6 -6 -6 -6
-7 -7 -7 -8 -8 -8 -8 -8 -8 -8 -8 -8 -8 -8 -8 -8 -8 -8 -8 -8 -8 -8 -8 -8 -8 -8 -8 -8 -7 -7 -7 -7 -7 -7 -7 -7 -7 -7 -7 -7 -7 -7 -7 -7 -7 -7 -7 -7 -6 -6 -6 -6 -6 -6 -6 -6 -6 -6 -6 -6 -7 -7 -7 -7 -7 -7 -7 -7 -7 -7 -7 -6 -6 -6
-7 -8 -8 -8 -8 -8 -8 -8 -8 -8 -8 -8 -8 -8 -8 -8 -8 -8 -8 -8 -8 -8 -8 -8 -8 -8 -8 -8 -8 -7 -7 -7 -7 -7 -7 -7 -7 -7 -7 -7 -7 -7 -7 -7 -7 -7 -7 -6 -6 -6 -6 -6 -6 -7 -7 -7 -7 -7 -7 -7 -7 -7 -7 -7 -7 -7 -7 -7 -7 -7 -7 -7 -7 -7
-7 -8 -8 -8 -8 -8 -8 -8 -8 -8 -8 -8 -8 -8 -8 -8 -8 -8 -8 -8 -8 -8 -8 -8 -8 -8 -8 -8 -8 -7 -7 -7 -7 -7 -7 -7 -7 -7 -7 -7 -7 -7 -7 -7 -7 -7 -7 -7 -7 -7 -7 -7 -7 -7 -7 -7 -7 -7 -7 -7 -7 -8 -8 -8 -8 -7 -7 -7 -7 -7 -7 -7 -7 -7
-8 -8 -8 -8 -8 -8 -8 -8 -8 -8 -8 -8 -8 -8 -8 -8 -8 -8 -8 -8 -8 -8 -8 -8 -8 -8 -8 -8 -8 -7 -7 -7 -7 -8 -8 -7 -7 -7 -7 -7 -7 -7 -7 -7 -7 -7 -7 -7 -7 -7 -7 -7 -7 -7 -7 -8 -8 -8 -7 -7 -7 -7 -8 -8 -8 -8 -8 -8 -8 -7 -7 -7 -7 -7
-8 -8 -8 -8 -8 -8 -8 -8 -8 -8 -8 -8 -8 -8 -8 -8 -8 -8 -8 -8 -8 -8 -8 -8 -8 -8 -8 -8 -8 -8 -8 -8 -8 -8 -8 -8 -8 -8 -8 -8 -8 -8 -8 -7 -7 -7 -8 -8 -8 -8 -8 -8 -8 -8 -8 -8 -8 -8 -8 -8 -7 -7 -8 -8 -8 -8 -8 -8 -8 -8 -8 -8 -8 -8
-8 -8 -8 -8 -8 -8 -8 -8 -8 -8 -8 -8 -8 -8 -8 -8 -8 -8 -8 -8 -8 -8 -8 -8 -8 -8 -8 -8 -8 -8 -8 -8 -8 -8 -8 -8 -8 -8 -8 -8 -8 -8 -8 -8 -8 -8 -8 -8 -8 -8 -8 -8 -8 -8 -8 -8 -8 -8 -8 -8 -8 -8 -8 -8 -8 -8 -8 -8 -8 -8 -8 -9 -9 -9
Height
5977 5977 5977 5977 5977 5977 5977 5978 5978 5978 5979 5979 5980 5980 5980 5980 5980 5980 5980 5980 5980 5980 5980 5980 5980 5980 5980 5979 5979 5978 5978 5978 5977 5976 5975 5974 5973 5972 5971 5970 5969 5968 5967 5966 5965 5964 5962 5961 5960 5958 5957 5955 5953 5951 5949 5947 5945 5942 5940 5938 5936 5933 5931 5929 5926 5924 5921 5919 5917 5915 5912 5910 5908 5906
5977 5977 5977 5977 5978 5978 5978 5978 5978 5978 5978 5979 5979 5980 5980 5980 5981 5981 5981 5981 5981 5981 5981 5981 5981 5980 5980 5980 5980 5979 5978 5978 5977 5976 5975 5974 5973 5973 5972 5971 5970 5969 5968 5967 5966 5964 5963 5962 5960 5959 5957 5955 5953 5951 5949 5947 5945 5943 5940 5938 5936 5933 5931 5928 5926 5924 5922 5919 5917 5915 5912 5910 5908 5907
5977 5977 5977 5978 5978 5978 5978 5978 5977 5978 5978 5978 5979 5979 5980 5980 5981 5981 5981 5981 5981 5981 5981 5981 5981 5981 5981 5980 5980 5979 5979 5977 5976 5976 5975 5975 5975 5974 5973 5972 5971 5970 5969 5968 5966 5965 5963 5962 5961 5959 5957 5955 5953 5951 5949 5947 5945 5943 5940 5938 5935 5932 5930 5928 5926 5924 5921 5919 5917 5914 5912 5910 5908 5906
5977 5977 5977 5978 5977 5977 5977 5977 5977 5977 5977 5978 5978 5979 5979 5980 5981 5981 5981 5982 5981 5981 5982 5981 5981 5981 5981 5981 5980 5979 5978 5977 5977 5977 5977 5976 5976 5975 5974 5973 5972 5971 5969 5968 5966 5965 5963 5962 5960 5958 5956 5954 5952 5950 5948 5946 5944 5942 5940 5937 5934 5932 5930 5927 5925 5923 5921 5919 5917 5914 5912 5909 5907 5905
5977 5977 5977 5977 5977 5977 5977 5977 5977 5977 5977 5977 5978 5978 5979 5980 5980 5981 5981 5982 5982 5982 5982 5982 5982 5981 5981 5981 5980 5979 5979 5979 5979 5979 5978 5977 5976 5975 5974 5973 5972 5970 5969 5967 5965 5964 5962 5961 5959 5957 5955 5953 5951 5950 5948 5946 5944 5941 5939 5937 5934 5932 5930 5927 5925 5923 5921 5918 5916 5914 5912 5909 5907 5905
5977 5977 5977 5977 5977 5977 5977 5977 5977 5977 5977 5977 5977 5978 5978 5979 5980 5980 5981 5981 5982 5982 5982 5982 5982 5981 5981 5981 5981 5980 5980 5980 5980 5979 5978 5977 5976 5975 5974 5973 5971 5970 5968 5967 5965 5964 5962 5961 5959 5957 5955 5953 5951 5950 5948 5946 5943 5941 5938 5936 5934 5932 5930 5927 5925 5923 5921 5918 5916 5914 5912 5909 5907 5904
5977 5977 5976 5976 5977 5977 5977 5977 5976 5976 5977 5977 5977 5977 5978 5978 5979 5980 5980 5981 5981 5981 5981 5981 5981 5981 5981 5981 5981 5981 5981 5980 5980 5979 5978 5978 5977 5976 5974 5973 5972 5970 5969 5968 5966 5964 5962 5961 5959 5957 5954 5952 5951 5949 5947 5945 5943 5941 5938 5936 5933 5932 5930 5928 5926 5923 5921 5918 5916 5913 5911 5909 5907 5904
5976 5976 5976 5976 5976 5976 5976 5976 5976 5976 5976 5976 5977 5977 5978 5978 5978 5979 5980 5980 5980 5980 5980 5981 5981 5981 5981 5981 5981 5981 5981 5980 5980 5979 5978 5978 5977 5976 5975 5973 5972 5970 5969 5967 5966 5964 5962 5960 5958 5956 5954 5952 5950 5949 5947 5945 5943 5940 5938 5935 5933 5931 5930 5928 5926 5923 5921 5918 5916 5913 5911 5908 5906 5903
5976 5976 5976 5976 5975 5976 5976 5976 5976 5976 5976 5976 5976 5977 5977 5978 5978 5978 5979 5979 5979 5979 5980 5980 5980 5980 5980 5980 5981 5981 5980 5980 5980 5979 5978 5977 5976 5975 5974 5973 5971 5969 5968 5966 5965 5964 5962 5960 5958 5955 5954 5952 5950 5949 5947 5945 5943 5940 5937 5935 5933 5931 5929 5927 5925 5923 5920 5918 5915 5913 5910 5907 5905 5902
5975 5975 5975 5975 5975 5975 5975 5975 5975 5975 5975 5976 5976 5976 5977 5977 5978 5978 5978 5978 5978 5979 5979 5979 5980 5980 5980 5980 5980 5980 5980 5979 5979 5978 5977 5977 5976 5974 5973 5972 5971 5970 5968 5966 5966 5964 5962 5960 5958 5956 5954 5953 5951 5949 5947 5944 5942 5940 5937 5935 5933 5931 5929 5927 5925 5922 5919 5917 5915 5912 5909 5907 5904 5901
5975 5974 5974 5974 5974 5974 5974 5974 5974 5974 5975 5975 5975 5976 5976 5976 5977 5977 5977 5977 5977 5978 5978 5978 5979 5979 5979 5980 5980 5980 5979 5979 5978 5977 5977 5976 5975 5974 5973 5972 5971 5971 5969 5967 5966 5965 5963 5960 5958 5956 5954 5952 5951 5948 5946 5944 5942 5939 5937 5935 5933 5931 5929 5927 5924 5921 5919 5916 5914 5911 5908 5906 5903 5900
5974 5974 5973 5973 5973 5973 5973 5973 5974 5974 5974 5974 5974 5975 5975 5975 5976 5976 5976 5976 5976 5977 5977 5977 5978 5978 5978 5979 5979 5979 5978 5978 5978 5977 5976 5975 5975 5974 5973 5972 5971 5971 5970 5968 5966 5964 5962 5960 5958 5956 5954 5952 5950 5948 5946 5943 5941 5939 5937 5935 5932 5930 5928 5925 5923 5921 5918 5915 5912 5910 5907 5904 5902 5899
5973 5973 5973 5972 5972 5972 5972 5972 5972 5973 5973 5973 5973 5974 5974 5974 5975 5975 5975 5975 5975 5975 5976 5976 5976 5977 5977 5977 5977 5977 5977 5977 5977 5976 5976 5975 5974 5974 5973 5971 5970 5970 5969 5967 5965 5964 5962 5960 5957 5955 5953 5951 5949 5947 5945 5943 5941 5939 5937 5935 5932 5929 5927 5924 5922 5920 5917 5914 5911 5908 5905 5903 5900 5897
5972 5972 5972 5972 5971 5971 5971 5971 5971 5971 5972 5972 5972 5973 5973 5973 5973 5973 5974 5974 5974 5974 5974 5974 5974 5975 5975 5976 5976 5976 5976 5976 5975 5975 5974 5974 5973 5973 5972 5970 5968 5968 5968 5967 5964 5962 5961 5959 5957 5955 5953 5950 5948 5946 5944 5943 5941 5939 5937 5934 5932 5929 5926 5924 5921 5918 5916 5913 5910 5907 5904 5901 5898 5895
5970 5970 5970 5970 5970 5970 5970 5969 5969 5970 5970 5970 5971 5971 5971 5971 5972 5972 5972 5972 5972 5972 5972 5972 5972 5973 5973 5973 5974 5974 5974 5974 5973 5973 5973 5973 5972 5971 5970 5969 5967 5966 5965 5965 5963 5960 5959 5958 5955 5953 5951 5949 5947 5945 5944 5942 5940 5938 5936 5933 5931 5929 5927 5924 5921 5917 5914 5911 5908 5905 5902 5899 5896 5893
5969 5969 5969 5969 5969 5968 5968 5968 5968 5968 5969 5969 5969 5970 5970 5970 5970 5970 5971 5971 5971 5971 5970 5970 5970 5971 5971 5971 5971 5971 5971 5971 5971 5971 5971 5970 5970 5969 5968 5967 5965 5963 5963 5963 5961 5958 5957 5956 5954 5951 5949 5947 5945 5944 5942 5941 5939 5937 5935 5932 5930 5927 5925 5922 5919 5916 5913 5910 5907 5904 5901 5898 5894 5891
5967 5967 5967 5967 5967 5967 5967 5966 5966 5966 5967 5967 5968 5968 5968 5968 5968 5969 5969 5969 5969 5969 5969 5969 5969 5969 5969 5969 5968 5969 5969 5969 5969 5969 5968 5967 5967 5966 5965 5964 5962 5961 5960 5960 5959 5957 5955 5954 5952 5950 5947 5945 5944 5942 5941 5939 5937 5935 5933 5930 5928 5925 5922 5919 5917 5914 5911 5908 5905 5902 5899 5896 5893 5890
5964 5964 5965 5965 5965 5965 5965 5965 5965 5965 5965 5965 5966 5966 5966 5966 5967 5967 5967 5967 5967 5967 5967 5967 5967 5967 5967 5967 5966 5966 5966 5966 5966 5966 5965 5965 5964 5964 5963 5961 5959 5958 5958 5958 5957 5955 5953 5952 5951 5948 5946 5943 5942 5941 5939 5937 5935 5932 5930 5928 5925 5922 5919 5917 5914 5912 5909 5906 5904 5901 5897 5895 5892 5889
5962 5962 5962 5963 5963 5963 5963 5963 5963 5963 5963 5963 5964 5964 5964 5964 5965 5965 5965 5965 5965 5965 5965 5965 5965 5965 5965 5965 5964 5964 5964 5963 5963 5963 5963 5962 5961 5961 5960 5958 5957 5956 5955 5955 5954 5953 5951 5949 5948 5947 5944 5942 5940 5938 5937 5935 5932 5930 5928 5926 5923 5921 5917 5914 5912 5909 5906 5904 5901 5898 5895 5893 5890 5887
5959 5960 5960 5960 5960 5961 5961 5961 5961 5961 5961 5961 5961 5962 5962 5962 5962 5963 5963 5963 5963 5963 5963 5963 5963 5962 5962 5962 5962 5961 5961 5960 5960 5960 5960 5959 5959 5958 5957 5956 5955 5954 5953 5952 5951 5950 5949 5947 5945 5944 5941 5939 5938 5936 5934 5932 5930 5927 5925 5923 5921 5919 5916 5912 5909 5906 5903 5900 5898 5895 5893 5890 5888 5885
5956 5956 5957 5958 5958 5958 5958 5959 5959 5959 5959 5959 5959 5959 5959 5960 5960 5960 5960 5960 5960 5960 5960 5960 5960 5960 5959 5959 5959 5958 5958 5957 5957 5957 5957 5957 5956 5955 5954 5954 5953 5951 5950 5950 5949 5947 5946 5944 5943 5941 5939 5936 5935 5934 5932 5930 5928 5925 5923 5920 5918 5916 5913 5909 5906 5902 5899 5896 5894 5892 5890 5888 5885 5882
5952 5953 5954 5955 5955 5955 5955 5956 5956 5957 5957 5957 5957 5957 5957 5957 5958 5958 5957 5957 5957 5957 5957 5957 5956 5956 5956 5955 5955 5955 5954 5954 5954 5954 5954 5953 5952 5951 5950 5950 5949 5948 5947 5946 5945 5944 5943 5941 5940 5939 5937 5934 5932 5931 5930 5928 5926 5923 5920 5918 5916 5913 5910 5906 5903 5899 5896 5894 5892 5889 5887 5885 5883 5880
5949 5949 5950 5951 5952 5952 5952 5953 5953 5954 5954 5954 5954 5954 5954 5955 5955 5954 5954 5954 5954 5953 5953 5953 5953 5953 5952 5952 5952 5952 5951 5951 5951 5951 5950 5949 5948 5947 5947 5947 5946 5944 5943 5942 5941 5940 5939 5938 5937 5936 5935 5933 5929 5928 5926 5925 5923 5920 5917 5915 5913 5910 5907 5903 5900 5897 5895 5892 5890 5888 5885 5883 5880 5877
5945 5946 5947 5948 5948 5949 5949 5950 5950 5951 5951 5951 5951 5952 5952 5952 5951 5951 5951 5951 5950 5950 5950 5949 5949 5949 5949 5948 5948 5948 5948 5947 5947 5947 5946 5945 5944 5944 5944 5944 5943 5941 5940 5939 5938 5937 5935 5934 5934 5933 5932 5930 5928 5926 5924 5922 5920 5917 5914 5912 5910 5907 5904 5901 5898 5896 5893 5891 5888 5886 5883 5880 5877 5874
5941 5942 5943 5944 5944 5945 5945 5946 5947 5947 5948 5948 5949 5949 5949 5949 5948 5947 5947 5947 5947 5947 5946 5946 5945 5945 5945 5945 5945 5944 5944 5944 5944 5944 5943 5942 5942 5942 5941 5941 5940 5939 5937 5936 5935 5933 5932 5931 5930 5929 5928 5926 5925 5923 5921 5919 5917 5914 5911 5909 5906 5904 5901 5899 5897 5894 5891 5888 5886 5883 5880 5877 5874 5871
5937 5938 5939 5939 5940 5941 5942 5942 5943 5944 5944 5945 5945 5945 5945 5945 5945 5944 5944 5944 5944 5943 5943 5942 5942 5941 5941 5941 5941 5941 5941 5942 5943 5942 5941 5941 5940 5939 5938 5937 5936 5935 5934 5933 5932 5930 5929 5928 5927 5926 5924 5923 5921 5920 5918 5916 5914 5911 5908 5906 5903 5901 5899 5896 5894 5891 5888 5885 5882 5879 5876 5874 5871 5868
5932 5933 5934 5936 5936 5937 5938 5938 5939 5940 5941 5941 5941 5941 5941 5941 5941 5941 5940 5940 5940 5939 5939 5938 5938 5937 5938 5938 5939 5939 5940 5941 5940 5940 5939 5938 5937 5935 5934 5932 5931 5931 5930 5930 5929 5927 5925 5924 5923 5922 5921 5919 5918 5916 5914 5913 5911 5909 5906 5903 5899 5897 5895 5893 5890 5888 5885 5882 5879 5876 5873 5870 5867 5864
5928 5929 5930 5932 5932 5933 5933 5934 5935 5936 5937 5937 5937 5937 5937 5937 5937 5937 5937 5936 5936 5935 5935 5935 5935 5935 5936 5937 5938 5938 5939 5938 5937 5936 5935 5933 5932 5930 5929 5928 5927 5926 5926 5925 5925 5923 5921 5921 5919 5918 5916 5915 5913 5912 5910 5909 5907 5905 5902 5899 5896 5894 5892 5889 5886 5884 5881 5879 5876 5873 5870 5867 5864 5861
5924 5925 5927 5928 5928 5928 5929 5929 5931 5932 5933 5933 5933 5933 5933 5933 5933 5933 5933 5932 5932 5932 5933 5933 5934 5935 5936 5937 5938 5937 5936 5935 5933 5930 5929 5927 5926 5925 5924 5923 5922 5922 5921 5921 5920 5918 5917 5917 5915 5914 5912 5910 5909 5907 5906 5904 5902 5900 5897 5895 5892 5890 5888 5886 5883 5880 5878 5875 5872 5870 5867 5865 5862 5860
5920 5921 5922 5923 5924 5924 5924 5925 5927 5928 5929 5929 5929 5929 5929 5928 5928 5928 5928 5928 5929 5930 5931 5932 5933 5935 5936 5936 5935 5933 5931 5928 5926 5924 5922 5921 5921 5920 5919 5918 5918 5917 5917 5917 5916 5914 5914 5913 5911 5909 5908 5906 5904 5903 5901 5899 5897 5895 5893 5890 5888 5886 5884 5882 5879 5877 5874 5872 5869 5866 5864 5861 5859 5857
5915 5916 5917 5918 5920 5920 5921 5922 5923 5924 5924 5925 5925 5925 5924 5924 5924 5924 5924 5925 5926 5928 5928 5929 5931 5931 5931 5930 5928 5926 5925 5923 5921 5919 5917 5916 5916 5915 5914 5914 5913 5913 5913 5912 5912 5911 5910 5909 5907 5905 5903 5902 5900 5899 5897 5895 5894 5891 5889 5887 5884 5882 5880 5878 5875 5873 5870 5867 5865 5862 5860 5857 5855 5853
5910 5911 5913 5915 5916 5917 5918 5919 5919 5919 5920 5920 5920 5920 5921 5920 5920 5921 5922 5923 5924 5924 5924 5925 5925 5925 5924 5924 5924 5923 5921 5919 5917 5915 5913 5912 5911 5911 5910 5910 5909 5908 5908 5908 5907 5907 5906 5905 5903 5901 5900 5898 5896 5895 5893 5892 5890 5888 5885 5882 5880 5877 5876 5874 5871 5869 5866 5863 5860 5858 5856 5854 5851 5849
5906 5908 5910 5911 5912 5913 5914 5915 5916 5916 5916 5916 5916 5916 5917 5917 5917 5919 5920 5920 5920 5920 5919 5919 5919 5921 5922 5922 5921 5919 5917 5915 5913 5911 5909 5908 5908 5908 5907 5906 5905 5904 5903 5903 5903 5903 5902 5901 5899 5897 5896 5894 5892 5890 5889 5887 5886 5884 5881 5878 5875 5873 5871 5869 5867 5864 5862 5859 5856 5854 5852 5850 5847 5845
5903 5905 5906 5907 5908 5909 5910 5911 5912 5912 5912 5912 5912 5913 5913 5913 5915 5916 5916 5916 5916 5915 5914 5915 5917 5919 5919 5918 5915 5913 5911 5909 5907 5905 5904 5904 5904 5904 5903 5902 5901 5900 5899 5898 5899 5899 5897 5896 5895 5893 5891 5889 5887 5886 5885 5883 5881 5879 5877 5874 5871 5869 5866 5864 5861 5859 5858 5855 5853 5850 5848 5846 5843 5840
5900 5901 5902 5903 5904 5905 5907 5908 5908 5908 5909 5909 5909 5909 5909 5910 5912 5912 5911 5911 5912 5912 5911 5911 5912 5914 5913 5911 5909 5907 5906 5904 5902 5900 5899 5899 5899 5900 5899 5898 5897 5896 5895 5894 5894 5894 5893 5892 5890 5888 5886 5884 5882 5881 5880 5878 5876 5874 5872 5869 5866 5863 5861 5859 5856 5854 5852 5851 5848 5846 5844 5841 5839 5836
5895 5896 5898 5899 5900 5901 5903 5904 5904 5905 5905 5905 5906 5906 5906 5907 5908 5908 5907 5907 5908 5908 5907 5906 5906 5906 5906 5905 5904 5902 5901 5899 5898 5896 5895 5895 5895 5895 5895 5894 5893 5892 5891 5890 5890 5889 5888 5887 5886 5884 5881 5879 5878 5876 5875 5873 5871 5869 5867 5864 5862 5859 5856 5853 5851 5849 5847 5845 5843 5841 5839 5836 5834 5832
5891 5893 5894 5896 5897 5898 5899 5900 5900 5900 5901 5902 5902 5903 5903 5904 5903 5903 5903 5903 5903 5902 5902 5901 5901 5900 5899 5899 5898 5897 5895 5894 5893 5892 5891 5891 5891 5891 5890 5888 5888 5887 5886 5885 5885 5884 5883 5882 5881 5879 5877 5875 5873 5872 5870 5868 5867 5865 5863 5860 5857 5854 5851 5848 5846 5843 5841 5840 5837 5835 5833 5830 5828 5826
5887 5889 5891 5892 5893 5894 5895 5895 5896 5896 5897 5898 5898 5899 5899 5899 5899 5898 5898 5897 5897 5897 5897 5896 5895 5895 5894 5893 5892 5891 5890 5889 5888 5887 5887 5886 5886 5886 5885 5883 5883 5882 5882 5881 5880 5878 5878 5877 5875 5873 5872 5870 5868 5867 5865 5864 5862 5860 5858 5856 5853 5850 5847 5844 5841 5838 5836 5834 5831 5829 5827 5825 5822 5820
5884 5885 5887 5888 5888 5889 5890 5891 5891 5892 5893 5893 5894 5894 5894 5894 5894 5893 5892 5891 5892 5893 5892 5891 5890 5890 5889 5888 5887 5886 5885 5884 5883 5882 5882 5882 5881 5881 5880 5879 5878 5877 5876 5875 5874 5873 5872 5870 5869 5868 5866 5865 5863 5862 5860 5858 5857 5855 5852 5850 5848 5845 5842 5839 5836 5833 5831 5828 5826 5823 5820 5818 5816 5813
5881 5881 5883 5884 5884 5885 5886 5886 5887 5887 5888 5889 5889 5889 5888 5888 5888 5887 5885 5884 5885 5887 5887 5886 5886 5885 5884 5883 5882 5881 5879 5879 5878 5877 5877 5876 5876 5876 5875 5874 5873 5872 5871 5870 5869 5867 5865 5864 5863 5862 5860 5859 5857 5856 5854 5852 5850 5848 5846 5843 5841 5839 5836 5833 5830 5828 5825 5823 5820 5817 5815 5812 5810 5807
5877 5877 5878 5879 5879 5880 5880 5881 5882 5883 5883 5884 5884 5884 5884 5884 5883 5882 5880 5878 5877 5879 5881 5881 5881 5880 5879 5878 5877 5875 5873 5873 5872 5872 5871 5871 5871 5870 5869 5868 5868 5867 5866 5864 5863 5861 5859 5858 5856 5855 5853 5852 5851 5849 5847 5845 5843 5841 5839 5837 5835 5833 5830 5827 5824 5821 5819 5817 5814 5811 5809 5807 5804 5802
5871 5872 5873 5874 5874 5875 5876 5877 5878 5878 5879 5879 5878 5878 5879 5879 5878 5878 5877 5873 5870 5872 5874 5874 5873 5873 5873 5872 5870 5868 5867 5867 5867 5866 5866 5866 5865 5864 5863 5862 5862 5861 5860 5858 5857 5855 5854 5852 5850 5848 5846 5845 5843 5841 5839 5838 5835 5833 5832 5830 5828 5826 5824 5821 5817 5814 5812 5810 5807 5804 5802 5800 5797 5795
5866 5867 5868 5869 5869 5870 5871 5872 5873 5873 5874 5874 5872 5872 5873 5874 5873 5872 5872 5869 5867 5866 5867 5866 5866 5866 5866 5865 5864 5863 5862 5862 5862 5861 5860 5860 5859 5858 5856 5856 5856 5855 5853 5852 5850 5849 5847 5845 5843 5841 5839 5837 5835 5833 5832 5830 5828 5826 5824 5823 5820 5819 5817 5814 5811 5807 5804 5802 5800 5797 5794 5791 5789 5786
5861 5862 5863 5863 5864 5865 5866 5867 5867 5868 5868 5868 5867 5866 5867 5867 5866 5865 5864 5863 5862 5861 5860 5859 5859 5859 5858 5858 5857 5857 5857 5856 5856 5855 5854 5853 5852 5851 5850 5849 5849 5847 5846 5844 5843 5841 5839 5837 5835 5833 5831 5830 5828 5825 5824 5822 5821 5819 5817 5815 5813 5811 5809 5807 5805 5801 5797 5795 5792 5789 5785 5782 5779 5776
5856 5856 5858 5858 5859 5860 5860 5861 5862 5862 5862 5862 5862 5861 5861 5860 5859 5858 5857 5857 5856 5855 5855 5854 5853 5852 5852 5852 5851 5851 5851 5850 5849 5848 5847 5846 5845 5845 5844 5842 5841 5840 5838 5837 5835 5833 5831 5829 5828 5826 5824 5822 5820 5818 5815 5814 5813 5811 5809 5807 5805 5802 5801 5799 5797 5794 5790 5787 5783 5780 5777 5773 5770 5767
Wind_Speed
8 8 8 7 7 5 4 4 4 5 6 6 6 7 8 9 10 11 12 12 12 12 12 11 11 10 10 10 10 10 12 13 15 16 18 19 19 18 17 16 16 16 17 18 19 20 21 21 22 23 24 25 26 28 29 30 31 31 32 32 32 32 33 33 34 34 35 35 34 33 31 30 30 30
6 6 7 7 7 6 5 4 4 5 6 6 6 7 7 8 9 9 10 11 11 10 10 10 9 9 10 9 9 10 12 13 15 17 19 18 17 15 14 14 15 16 17 18 18 19 19 21 22 23 24 26 27 29 30 31 32 32 33 33 33 34 34 35 35 35 35 35 35 34 33 31 30 29
5 5 5 5 5 6 5 5 5 5 6 7 7 7 7 7 7 8 9 9 9 9 9 8 8 8 8 9 9 10 12 14 16 17 16 14 12 11 11 12 14 14 15 17 18 18 20 21 22 24 25 27 29 30 31 32 32 33 34 35 36 36 37 37 37 37 36 36 36 36 35 34 32 30
4 4 4 4 4 5 5 5 5 5 7 8 7 7 7 7 6 7 7 8 8 7 7 7 7 7 7 8 9 10 13 15 14 11 9 7 7 9 11 12 13 14 15 18 19 20 21 23 24 26 27 29 30 31 32 33 34 34 35 36 37 38 39 39 39 39 38 38 38 37 37 36 35 33
3 3 3 3 3 4 4 4 4 5 6 8 8 8 7 6 6 6 7 7 6 6 5 5 6 6 6 7 8 11 12 10 7 5 5 6 8 10 11 12 13 14 16 19 20 21 22 24 26 27 28 30 31 32 33 34 34 35 36 37 38 39 39 40 40 40 39 39 38 38 38 37 36 36
2 2 2 2 2 3 3 3 3 4 5 7 8 8 7 6 6 6 6 6 5 5 5 4 4 4 4 6 8 9 8 5 4 4 5 7 8 9 10 12 13 13 15 18 19 20 22 24 25 27 28 29 31 32 33 34 34 35 36 37 38 38 39 39 39 39 39 39 39 38 38 37 36 36
2 1 1 1 1 1 1 1 1 2 4 6 7 8 7 6 5 5 5 5 5 4 4 3 3 2 2 4 6 7 5 5 5 5 5 6 7 8 9 10 11 12 14 16 18 19 21 22 24 26 27 29 30 31 32 33 34 34 35 36 37 38 38 38 38 38 37 38 38 38 38 37 36 36
2 2 2 2 2 2 1 0 1 1 2 4 7 7 7 7 6 5 4 4 4 4 3 3 3 3 2 4 5 4 3 3 3 4 5 6 7 8 9 10 11 13 15 17 18 19 20 22 24 26 27 28 29 30 31 32 32 33 34 35 36 36 37 37 37 36 36 37 37 37 37 37 37 36
3 3 3 3 3 4 3 3 2 2 2 3 5 7 8 7 6 5 5 5 5 4 4 4 4 4 2 3 4 2 1 1 1 3 4 6 8 9 10 12 14 16 18 19 20 20 21 22 24 25 26 27 27 28 29 30 31 32 33 34 35 35 36 36 36 36 36 36 36 36 37 37 37 37
4 4 4 4 5 5 5 5 4 4 4 4 5 6 7 7 7 6 5 6 5 5 5 5 5 5 4 4 5 2 1 1 2 4 6 7 8 10 12 14 15 16 17 18 18 19 19 21 22 23 24 25 26 27 28 29 30 31 32 33 33 34 34 34 35 35 35 35 35 36 36 36 37 37
5 6 6 5 6 7 7 7 6 6 6 5 5 6 7 8 7 7 6 6 6 6 6 6 6 5 5 6 7 4 1 1 2 4 7 8 9 10 11 11 11 11 13 15 16 17 18 19 20 22 23 24 25 26 26 27 29 30 31 32 32 33 33 33 34 34 35 35 35 35 35 36 36 36
5 7 7 7 7 8 9 9 8 8 8 7 6 6 7 8 8 8 7 7 7 7 7 8 8 7 6 7 9 7 3 1 1 3 5 7 7 7 8 9 9 8 9 13 16 16 17 19 21 22 24 24 25 26 26 27 28 29 30 31 31 32 32 33 33 34 34 34 34 35 35 35 35 36
6 7 8 8 8 9 10 10 10 10 9 9 8 7 8 9 9 9 8 8 7 7 8 9 9 8 8 9 9 9 7 5 4 3 5 6 7 6 7 10 11 9 9 13 16 17 18 19 21 22 24 25 26 26 26 27 27 28 28 29 31 32 32 33 33 33 33 33 34 34 35 35 35 36
7 7 8 8 8 9 10 11 12 12 11 10 9 9 9 10 10 11 10 9 9 9 9 9 9 9 9 9 9 9 9 8 7 6 6 7 7 7 9 13 16 15 13 14 17 19 19 19 21 23 24 25 26 26 26 26 26 27 28 29 30 31 32 32 33 33 32 32 33 34 35 36 36 37
9 8 8 8 8 8 10 12 13 13 13 12 11 10 11 11 11 12 12 11 11 10 10 10 10 10 9 9 9 9 9 10 9 9 9 9 9 9 9 13 17 19 18 18 19 21 21 20 22 23 25 26 26 26 26 26 26 27 28 28 29 29 29 30 31 31 32 32 33 34 35 36 37 37
10 10 9 9 8 9 9 11 12 13 14 14 12 11 11 12 13 13 14 13 13 12 11 11 11 11 11 12 11 11 11 12 12 11 11 12 12 11 11 13 16 19 20 20 21 23 23 22 23 25 26 26 26 26 27 26 26 26 27 28 29 29 30 30 31 31 31 32 33 33 34 35 36 37
12 12 11 10 9 9 9 10 11 12 14 15 14 12 12 13 14 14 14 15 14 14 13 12 13 12 12 13 14 14 13 13 13 13 13 14 14 14 14 16 18 20 21 20 21 23 24 23 24 25 27 27 27 27 26 26 26 26 27 29 30 31 32 32 31 31 31 31 32 33 33 34 34 35
14 14 13 11 11 10 10 10 11 12 13 15 16 15 14 14 14 14 14 15 16 15 14 14 15 14 13 14 16 17 16 15 15 15 15 15 16 16 16 18 21 22 23 23 23 23 23 23 23 24 27 28 27 27 26 26 26 27 28 29 31 32 33 33 33 32 32 31 32 32 33 33 34 34
16 16 14 13 13 12 11 11 11 13 14 14 16 17 16 15 15 15 15 16 16 16 16 16 16 16 15 15 17 18 18 17 17 16 16 17 17 17 18 21 22 23 24 25 25 24 24 24 24 25 27 28 27 27 27 26 27 28 29 29 31 32 33 34 33 32 32 32 32 33 33 34 34 35
18 18 17 15 14 13 12 12 12 13 14 14 16 18 18 17 17 16 16 16 17 17 18 17 17 18 18 19 19 19 19 19 19 18 17 18 19 20 22 23 23 24 24 25 25 24 23 24 24 26 27 28 28 28 28 27 28 28 29 30 31 32 34 34 33 33 33 33 34 35 35 35 36 36
20 20 19 17 16 15 14 13 12 12 13 14 15 18 19 19 18 18 18 17 18 18 19 19 19 19 20 21 21 21 21 21 21 20 19 19 21 23 24 23 23 24 25 25 25 23 23 24 25 26 29 30 30 29 28 29 29 29 30 31 32 33 34 34 34 34 35 36 36 36 37 37 37 38
23 22 22 20 18 16 16 14 13 12 12 14 16 17 19 19 19 19 19 19 19 20 20 19 20 21 22 23 22 22 23 23 22 21 20 21 23 25 24 23 24 26 26 26 25 24 24 25 26 28 30 32 33 31 30 30 30 30 31 32 33 34 34 34 35 36 36 37 37 37 37 37 38 39
25 24 24 22 19 18 18 16 15 14 13 14 15 17 18 19 20 21 21 21 21 21 20 21 22 23 24 24 24 24 24 24 24 23 22 23 25 26 25 24 25 27 27 26 26 26 26 26 28 29 28 28 29 30 30 29 30 30 31 32 33 34 34 35 36 37 37 37 36 36 36 37 39 41
27 26 25 24 22 20 19 18 16 15 15 15 16 17 17 19 22 23 23 23 23 22 22 23 24 24 25 25 25 25 26 26 26 25 25 27 27 27 26 26 26 27 27 27 27 27 27 28 28 28 26 24 23 25 27 28 29 31 32 33 34 34 34 35 36 36 36 36 35 35 36 38 40 41
28 28 27 26 24 22 21 19 18 17 17 16 17 17 18 20 23 25 25 25 25 24 25 26 26 26 26 27 27 28 28 28 28 28 28 29 28 28 28 27 27 28 27 27 27 28 28 28 27 26 26 24 24 25 26 28 30 31 33 34 34 34 34 34 35 35 35 34 34 36 38 39 40 40
29 29 28 27 26 24 22 21 20 19 18 18 17 19 20 22 24 25 26 27 27 27 28 28 29 29 29 29 30 30 30 29 29 30 30 29 29 29 29 28 27 27 27 27 28 29 29 28 27 26 26 26 26 26 27 29 30 32 33 34 34 34 34 34 34 35 34 34 36 38 39 40 40 39
29 29 29 28 26 25 24 23 22 21 20 19 19 20 21 22 24 26 28 29 29 30 31 31 32 32 32 31 31 31 31 30 30 31 31 31 31 31 30 29 27 26 26 27 28 30 30 28 27 27 28 27 27 28 29 30 31 32 33 34 34 34 34 34 34 33 33 34 37 39 39 40 39 37
30 30 29 28 27 26 25 25 24 23 21 20 20 21 21 22 23 26 28 30 31 32 33 33 33 33 32 32 31 32 32 31 32 32 33 33 33 33 31 29 27 25 26 27 29 30 30 28 28 29 29 29 29 30 31 32 32 33 34 35 35 34 34 34 34 33 34 35 37 38 38 38 37 35
30 30 29 28 27 27 27 27 26 24 22 21 21 21 21 21 22 25 28 30 31 32 32 32 32 32 32 31 31 32 33 33 34 35 35 34 34 33 31 29 26 25 26 27 29 29 29 29 30 30 30 31 32 33 34 34 34 35 36 37 36 35 33 33 33 34 35 36 36 36 35 34 32 31
31 31 30 29 28 28 28 28 27 25 23 22 21 21 21 22 24 26 27 28 28 29 29 29 29 28 27 28 29 31 32 33 34 35 36 35 33 32 30 28 26 26 27 28 29 29 29 29 30 31 31 33 34 35 35 35 36 37 38 37 37 35 34 33 33 35 36 36 35 34 33 31 30 29
32 32 32 30 29 29 29 28 27 25 23 22 21 21 22 23 24 25 25 25 25 24 24 24 23 22 22 24 26 28 29 30 31 33 34 32 29 28 27 26 26 27 29 30 31 30 29 29 30 31 33 34 35 36 36 36 37 38 39 38 38 36 34 33 34 35 36 36 34 32 31 31 31 32
34 33 32 31 30 29 29 28 26 25 23 22 22 21 21 22 23 23 22 21 20 20 21 21 21 22 23 25 26 29 31 33 35 34 31 28 25 24 24 26 28 30 31 33 33 32 30 30 31 32 34 36 36 36 36 37 38 39 40 40 39 37 36 35 34 35 35 35 34 31 30 31 32 33
33 31 30 30 29 29 28 27 25 24 23 23 22 21 21 22 22 21 20 20 20 22 24 25 26 27 26 27 29 33 37 40 41 39 35 32 28 26 25 28 30 32 33 34 33 32 30 30 31 33 35 36 36 36 37 38 39 40 40 41 40 39 38 37 35 35 34 34 34 33 32 32 33 35
30 30 30 30 29 28 27 26 25 24 23 23 23 22 22 22 22 22 23 24 25 26 28 30 32 31 30 30 34 37 40 41 42 41 39 35 31 27 28 31 33 34 34 33 32 31 31 32 33 35 36 37 37 38 38 40 41 41 41 42 41 40 40 39 38 37 35 34 34 34 35 35 35 37
29 29 29 29 29 28 27 26 25 24 23 23 23 23 24 24 24 25 27 28 28 29 30 32 33 33 32 33 35 37 38 38 36 34 32 31 29 29 30 31 31 31 31 31 31 31 32 33 34 36 38 38 39 39 40 41 42 42 43 43 43 42 42 41 41 40 39 37 37 37 38 38 38 40
28 28 28 28 28 28 26 26 25 25 25 24 25 25 26 26 27 29 30 30 29 30 32 34 35 35 35 34 34 35 36 34 30 26 24 25 27 29 30 29 28 28 29 30 31 32 33 34 36 38 39 40 40 41 42 43 43 44 44 44 44 44 44 44 43 43 43 42 42 42 41 41 41 42
27 27 27 27 28 28 27 26 26 26 26 26 26 26 27 28 30 31 32 32 32 33 35 36 37 38 38 37 35 34 34 32 28 26 25 26 28 29 31 32 32 32 32 32 32 33 34 36 37 38 39 41 42 43 44 45 45 45 45 45 45 45 45 46 46 46 46 47 47 46 46 45 45 45
27 27 27 27 27 28 28 28 28 28 28 28 28 29 30 31 31 32 34 35 36 36 37 39 39 38 39 39 37 35 32 30 29 28 28 29 29 30 32 33 35 35 35 35 35 36 37 39 39 40 41 42 43 45 46 46 46 46 46 46 46 46 46 47 47 48 49 50 50 50 49 48 48 49
26 27 27 27 28 29 29 30 30 30 30 31 31 32 33 33 33 35 37 39 39 38 39 40 39 38 39 38 37 35 33 31 31 31 32 31 30 31 32 34 35 37 37 37 38 39 40 41 41 42 43 44 45 46 47 47 47 47 47 47 47 47 47 48 49 50 51 52 52 52 51 51 51 53
28 28 27 28 29 30 31 32 32 32 32 32 33 34 35 36 37 39 41 43 42 41 40 39 39 40 41 39 37 36 36 34 33 33 33 32 31 31 33 35 36 38 39 40 41 42 43 43 44 44 46 47 47 48 48 49 49 49 49 49 48 48 49 50 51 52 52 53 52 52 51 52 53 55
30 29 29 30 31 31 32 33 33 33 34 35 36 37 37 38 40 42 44 46 47 43 39 38 40 42 43 42 40 39 38 37 36 35 35 34 34 34 35 37 39 40 41 43 43 44 45 46 47 48 49 49 49 49 50 50 50 50 51 51 51 50 50 51 53 54 54 54 54 53 53 54 56 58
31 31 32 32 33 33 33 34 34 35 36 37 39 40 39 40 42 43 44 48 50 47 44 45 47 47 45 44 43 42 41 40 39 38 38 37 37 38 39 40 41 42 43 45 46 47 47 48 50 51 51 51 51 51 51 51 52 52 53 53 53 53 52 53 55 56 56 55 56 56 57 58 59 60
32 33 34 34 35 35 36 37 38 38 39 40 42 43 42 42 44 44 45 48 51 52 52 53 53 50 48 46 45 44 43 42 41 40 40 40 40 42 43 43 43 43 45 47 48 49 50 51 52 53 53 53 54 54 54 54 54 55 55 55 55 55 55 55 56 58 58 58 58 59 60 62 63 64
34 34 35 36 37 38 38 39 40 40 41 42 44 46 46 46 47 47 49 50 52 54 55 55 54 52 50 49 48 46 44 43 42 42 42 44 45 45 45 45 45 46 48 49 50 51 53 54 54 55 55 55 56 57 57 57 57 57 57 57 58 58 57 57 58 59 60 61 61 62 64 65 66 67
35 36 36 38 39 40 40 41 41 43 44 45 47 49 50 50 51 51 51 52 54 54 54 54 54 52 51 50 50 48 46 45 45 46 47 48 48 47 47 47 48 49 50 51 53 54 54 55 56 57 57 57 57 59 60 60 60 59 59 59 60 61 61 61 61 62 63 64 65 66 66 67 68 68
Wind_Direction
87 80 72 66 64 70 88 106 115 115 108 100 94 91 91 92 94 96 96 95 95 95 92 90 88 87 86 81 73 62 53 50 49 45 38 32 26 20 17 18 21 22 21 22 23 23 22 21 20 18 17 17 18 19 18 18 17 17 16 15 15 15 15 15 14 14 14 14 15 15 15 15 14 13
82 77 72 67 64 67 82 103 120 126 127 122 112 105 102 101 100 100 99 98 97 95 93 92 90 90 90 85 70 56 49 47 44 40 35 28 20 14 13 17 22 24 24 25 25 24 24 23 21 19 18 18 18 18 17 16 15 15 14 14 14 14 14 14 14 13 13 12 12 13 14 15 16 15
76 68 66 66 64 63 71 90 112 129 138 139 132 124 117 112 109 106 103 101 98 96 97 96 93 91 89 79 65 54 48 46 42 37 28 17 10 15 23 27 29 28 27 28 27 26 25 22 21 19 17 17 17 16 15 14 13 13 13 12 11 11 11 11 11 11 11 10 9 9 9 10 12 14
79 70 63 62 63 63 67 81 104 128 144 148 144 137 132 126 122 117 111 108 105 103 103 101 96 92 85 76 63 53 49 47 40 28 14 6 17 33 37 34 32 30 29 28 26 24 22 19 18 17 16 15 14 13 12 11 10 10 11 10 9 9 8 8 7 7 7 8 8 7 6 5 6 8
76 72 65 61 61 60 61 76 98 123 144 152 151 148 146 141 135 131 127 122 118 113 107 102 96 89 84 78 66 58 57 52 38 15 13 30 39 41 38 34 30 27 25 24 23 20 17 15 14 13 13 12 11 10 9 8 8 8 8 8 7 7 6 5 4 4 4 4 5 4 3 2 2 2
46 46 50 56 59 59 58 67 91 119 143 155 158 157 157 154 148 144 142 138 135 129 120 110 100 88 82 79 73 70 67 52 41 46 50 47 40 34 32 30 27 23 21 21 20 16 13 11 11 10 10 9 8 7 6 5 5 6 6 6 5 5 4 3 2 1 1 2 2 1 -0 359 359 359
358 0 354 356 0 35 58 70 93 124 147 160 166 167 166 165 163 160 155 151 149 146 139 127 120 120 105 91 84 77 59 36 41 51 48 44 43 40 35 30 26 22 20 21 20 15 10 8 8 8 7 6 6 5 3 2 2 3 3 3 3 2 1 360 359 358 359 -0 359 358 357 357 357 356
325 325 311 291 272 263 266 243 196 180 170 170 173 176 176 174 175 178 175 171 171 169 170 162 156 164 149 113 106 92 51 36 43 39 28 26 31 37 38 32 25 18 15 17 17 12 6 5 5 5 4 3 2 1 360 359 359 360 1 0 359 358 357 356 356 356 357 358 357 356 355 354 354 354
307 307 297 281 264 248 242 245 240 224 214 198 186 184 185 183 183 187 190 193 198 198 194 187 177 173 168 143 138 127 35 27 35 25 28 24 16 18 24 25 19 11 5 5 6 4 0 0 1 0 359 358 357 356 356 355 356 357 358 357 356 354 353 352 352 353 355 356 355 354 353 352 352 352
299 296 290 276 266 253 238 236 242 237 231 224 211 200 195 191 189 193 199 204 212 218 212 204 195 187 187 182 176 180 322 315 340 353 6 13 9 7 10 16 17 6 354 352 356 356 354 353 355 354 353 352 352 352 352 352 353 355 355 353 351 350 348 348 349 350 352 352 352 351 351 351 350 350
289 291 288 277 264 257 245 235 236 240 239 235 228 219 209 202 199 200 207 213 220 226 225 219 214 208 200 193 194 206 261 347 2 351 346 348 356 360 358 360 6 2 347 341 346 350 348 346 347 347 347 347 348 348 348 350 352 353 352 350 347 346 344 344 346 348 348 349 349 349 349 349 349 348
276 281 283 280 269 261 252 242 235 237 241 240 238 233 224 217 212 211 216 223 227 230 230 226 222 220 214 203 202 209 229 278 335 347 339 331 333 339 335 330 337 346 341 335 337 342 343 341 341 342 342 342 344 345 347 349 351 351 349 346 345 343 342 342 344 345 345 346 346 346 346 347 347 347
269 273 275 276 273 266 259 250 240 237 239 241 239 238 236 230 225 223 226 233 238 236 234 232 228 224 220 213 210 213 222 239 264 302 328 325 311 295 290 296 306 319 330 330 329 333 336 335 335 336 336 337 340 343 345 347 349 348 345 344 343 342 341 342 342 342 342 343 344 344 344 345 346 346
267 269 271 272 269 265 261 256 248 240 239 241 239 239 241 238 232 231 232 238 246 247 244 243 241 237 232 224 219 220 227 238 255 275 293 304 304 293 282 286 295 302 311 317 319 322 326 328 328 329 329 331 335 339 342 344 345 344 342 342 341 340 340 340 339 338 340 341 342 342 343 344 344 344
264 264 266 268 266 261 259 258 252 244 240 241 239 238 243 243 238 235 237 240 247 252 255 256 256 256 254 248 240 236 238 243 249 260 271 281 292 298 293 291 295 297 298 301 304 308 314 319 321 323 324 327 331 335 338 340 341 340 339 339 338 337 337 336 336 336 338 339 341 342 342 342 343 343
258 258 260 262 264 262 261 261 257 248 241 240 240 238 242 246 244 240 240 242 246 252 257 261 264 265 266 266 262 257 254 254 256 262 268 273 278 285 291 293 294 295 296 297 297 298 303 311 316 319 321 323 327 331 334 336 337 337 337 336 335 335 335 335 335 335 337 339 340 340 340 341 342 341
256 256 257 258 260 260 262 264 264 255 244 240 239 238 240 246 249 246 244 245 247 250 255 260 264 265 267 269 270 268 264 263 265 268 273 275 275 278 285 289 291 293 298 300 299 296 297 303 311 316 317 318 322 326 330 332 333 334 335 335 335 334 335 334 333 334 336 338 338 338 339 340 340 340
254 256 258 258 259 259 259 262 264 261 252 243 240 239 239 246 252 252 248 247 247 248 251 257 262 265 266 266 269 271 270 268 267 269 274 278 278 279 282 284 286 291 297 301 302 300 297 298 304 310 311 312 317 323 326 328 330 333 334 334 334 335 334 333 332 333 335 336 337 338 338 339 339 338
250 254 259 260 259 260 258 259 260 261 258 250 244 241 240 245 252 253 251 250 250 248 248 252 258 263 264 264 265 269 272 272 272 272 274 278 281 283 285 284 284 288 293 298 301 302 298 295 298 303 306 309 314 319 322 325 328 330 332 333 334 334 333 331 331 331 333 335 337 338 338 338 339 338
250 252 256 258 259 259 257 256 256 258 259 256 248 243 241 244 249 253 254 254 253 251 249 251 255 259 263 264 265 268 270 273 276 278 280 283 285 286 285 283 284 286 288 294 301 302 296 292 294 299 303 305 309 314 319 323 326 328 329 330 332 332 331 330 330 331 333 336 337 338 338 338 338 337
252 252 253 256 258 259 257 254 253 253 256 257 252 246 243 244 246 250 254 256 254 253 253 253 255 258 261 263 265 267 269 272 276 279 283 286 287 285 283 283 287 289 288 293 302 303 297 292 294 299 302 303 305 309 314 319 323 325 326 328 330 331 330 330 331 333 334 336 337 337 337 337 336 336
250 251 252 254 257 258 258 255 251 248 249 254 255 249 245 245 245 247 251 254 254 254 254 254 255 258 261 262 264 266 269 272 275 279 283 287 288 288 286 287 292 292 290 294 302 304 300 296 297 301 303 303 302 304 308 314 319 322 324 326 328 329 329 331 334 335 335 335 335 335 334 334 334 335
247 249 251 254 255 256 257 255 251 247 244 247 251 251 248 245 243 243 248 251 252 253 252 252 254 256 259 262 263 265 267 271 274 279 284 287 289 291 292 292 293 292 291 294 299 302 300 299 301 304 305 305 303 302 304 311 317 320 321 324 326 327 330 333 334 333 333 332 332 332 332 333 333 334
244 246 249 251 252 253 255 254 252 250 249 247 248 251 249 243 239 242 248 251 251 251 250 250 252 254 257 260 263 266 269 272 277 282 285 287 289 292 295 295 293 292 290 291 295 297 298 299 302 304 307 311 310 307 307 311 316 318 319 322 324 327 331 332 331 330 330 329 329 330 331 332 333 334
241 243 246 247 249 251 253 253 252 252 253 252 249 248 246 241 239 242 246 248 249 250 250 251 252 254 256 259 263 267 270 274 279 283 285 288 293 295 296 294 293 290 288 288 290 293 295 298 301 303 306 311 311 311 312 314 315 317 318 321 323 327 329 329 327 327 327 327 328 329 331 332 334 335
238 240 242 244 246 249 251 252 251 252 255 258 254 248 244 242 241 242 244 245 248 249 250 251 253 254 256 259 262 265 269 274 279 282 285 290 295 296 295 293 291 288 286 286 288 290 293 297 299 301 304 307 308 310 313 314 315 316 317 319 322 324 326 325 325 325 326 327 328 330 331 333 334 335
236 238 240 242 245 247 249 249 250 251 256 260 259 253 248 245 242 242 242 243 245 248 250 252 254 257 259 262 264 269 273 277 281 283 286 291 293 293 292 291 288 285 282 282 286 289 293 296 299 300 302 304 306 309 311 312 313 314 316 318 321 323 324 323 323 324 326 327 329 330 331 332 333 336
235 237 239 241 243 246 247 248 250 254 258 260 260 258 254 248 244 243 243 243 244 247 250 253 257 260 264 268 272 277 280 283 285 286 287 287 288 289 290 289 285 281 280 283 287 291 293 298 300 300 301 303 306 309 311 311 312 315 318 320 321 321 322 321 322 324 326 327 328 329 330 331 332 334
235 237 238 239 241 244 246 248 251 255 259 260 261 259 257 253 249 247 247 247 248 251 254 258 262 266 271 275 279 282 283 283 283 283 282 281 283 286 288 286 282 280 282 286 289 291 293 297 300 300 301 304 307 309 310 312 314 317 319 320 319 319 319 319 321 323 326 326 326 326 327 328 330 331
234 236 235 236 238 241 245 249 254 257 260 262 261 258 256 253 251 250 250 252 254 257 261 265 269 273 278 281 280 279 277 276 276 276 276 277 279 281 283 281 279 278 283 286 288 289 292 295 297 299 302 304 306 308 309 312 316 318 318 317 316 316 317 318 320 322 324 324 324 325 326 326 326 328
233 234 234 234 236 240 245 251 257 261 262 261 258 256 254 254 254 255 257 258 261 265 268 273 278 281 280 276 274 274 274 273 271 271 271 272 273 274 274 274 274 277 283 287 288 288 290 292 295 298 301 303 304 306 309 312 315 315 315 314 314 314 315 316 318 320 322 322 322 323 324 323 323 323
233 234 235 236 239 242 246 252 257 261 261 260 257 255 255 255 257 260 263 267 272 276 278 279 279 275 273 275 278 279 277 274 271 271 271 271 271 270 268 270 273 277 282 287 287 287 288 291 294 297 299 301 303 306 308 311 312 313 313 313 313 313 313 314 316 318 320 321 320 320 320 319 319 320
235 236 237 238 240 244 248 252 255 256 256 255 255 254 254 257 261 267 273 277 280 280 279 279 277 274 277 286 290 288 286 283 279 277 278 278 275 269 265 265 268 272 278 282 283 284 287 290 292 295 298 300 303 305 307 308 309 310 312 312 312 311 311 312 314 315 316 317 316 316 315 315 315 316
236 236 237 239 241 244 248 250 250 249 248 249 252 255 258 263 269 274 276 277 278 278 280 283 283 282 284 289 289 289 292 292 287 281 278 276 273 270 269 270 269 269 271 275 278 282 286 290 292 295 298 300 302 303 304 305 307 309 311 311 311 310 310 311 311 311 311 311 311 311 312 313 313 313
234 235 237 239 243 245 247 247 245 243 242 246 251 257 262 267 271 273 274 275 277 281 284 286 287 288 290 290 290 289 291 294 292 285 278 273 270 270 273 275 272 267 265 269 275 281 286 290 293 295 297 298 300 301 303 304 306 308 310 311 310 309 309 308 308 308 309 308 307 307 308 309 310 311
234 234 236 239 243 245 245 242 240 240 242 246 251 256 263 268 270 271 272 275 278 281 282 283 286 289 292 294 294 292 290 290 292 289 282 276 272 272 273 272 268 265 265 269 276 282 287 291 293 294 295 297 299 301 302 303 305 306 308 309 309 308 307 307 306 306 307 307 306 305 304 305 305 307
234 234 236 238 241 243 242 240 240 242 245 248 252 257 263 267 270 272 274 277 278 278 280 282 286 290 294 297 296 293 290 288 286 283 281 278 275 273 271 268 266 266 269 273 278 283 288 290 292 293 294 296 298 300 301 302 303 304 306 307 307 306 305 306 306 306 307 307 307 306 304 304 305 307
231 234 236 237 238 239 240 241 242 244 248 252 256 261 265 267 270 274 276 276 276 279 282 285 286 289 294 295 293 289 289 289 285 281 279 277 275 272 271 269 269 270 272 276 281 285 288 289 290 293 295 296 297 298 299 299 300 301 303 305 305 304 304 305 305 305 306 307 308 307 306 306 307 309
235 236 235 234 235 236 238 240 243 246 251 256 261 265 268 270 273 275 276 276 277 280 282 284 285 289 293 293 290 287 287 287 284 280 278 276 274 272 272 272 274 275 277 280 282 285 287 288 290 293 294 295 295 296 296 297 298 299 301 303 304 304 304 304 303 303 304 307 309 309 310 310 311 313
242 242 238 236 236 237 238 242 246 251 256 261 265 268 270 273 275 277 278 277 277 277 278 280 284 289 293 292 289 286 284 283 282 281 278 275 274 274 274 275 276 278 279 281 283 285 286 288 290 291 293 293 295 296 296 297 299 300 302 304 305 304 303 303 302 302 304 307 308 309 310 311 312 313
242 244 243 241 240 240 242 247 252 257 261 265 268 270 272 275 276 277 279 280 279 279 281 286 290 292 293 292 288 284 282 282 282 281 278 276 276 277 277 277 278 279 281 282 283 285 286 288 289 291 292 294 295 297 297 299 300 301 303 304 304 304 303 303 303 303 304 306 307 307 307 308 308 310
240 242 244 246 247 249 251 255 259 262 265 267 269 271 273 274 274 276 279 283 284 285 287 291 293 293 292 290 286 282 281 282 283 281 280 278 278 279 279 279 280 281 282 283 283 285 286 288 289 291 293 295 297 298 299 300 301 301 303 303 303 303 303 304 304 304 304 305 305 305 305 306 307 308
244 245 246 248 251 254 257 259 261 263 265 267 269 271 272 273 273 276 279 282 284 286 288 289 290 290 289 288 284 281 280 281 283 283 282 281 281 282 281 281 282 282 283 283 284 285 287 288 289 292 294 297 298 299 299 300 301 301 302 302 302 303 303 304 304 304 304 305 305 305 305 305 306 306
249 250 250 252 255 257 259 262 264 265 266 267 268 270 272 272 274 277 280 281 282 284 286 287 287 285 285 286 285 282 280 281 281 281 281 281 282 283 283 283 284 285 285 286 286 287 288 290 292 294 297 298 299 299 300 300 301 301 301 302 302 303 303 303 303 304 304 305 305 305 305 306 306 308
253 254 255 257 259 261 263 264 266 266 267 268 269 270 272 273 275 277 278 279 281 283 285 286 284 282 282 284 284 282 281 281 281 281 281 282 284 285 285 285 286 286 287 287 288 289 291 293 295 297 298 299 299 300 300 300 301 301 301 302 302 303 303 303 303 303 303 304 305 305 306 308 309 311